Location: Asheville, NC
(35.6000°N, 82.5500°W)
Time: 05:27:42
(UTC-05:00)

Vanguard 2 Rocket - Pass Details

Date: 13 February 2018
Orbit: 555 x 3327 km, 32.9° (Epoch: 17 February)

Event Time Altitude Azimuth Distance (km) Brightness Sun altitude
Rises 00:05:06 0° 226° (SW) 5,602 - -66.1°
Reaches altitude 10° 00:08:23 10° 222° (SW) 4,914 - -66.3°
Maximum altitude 00:23:19 55° 149° (SSE) 3,498 - -67.3°
Exits shadow 00:39:35 17° 82° (E) 5,657 10.8 -67.7°
Drops below altitude 10° 00:42:44 10° 79° (E) 6,239 11.1 -67.8°
Sets 00:47:31 0° 76° (ENE) 7,143 11.5 -67.8°
